Date String (YYYY-MM-DD hh:mm:ss) UTC,Instrument flags,absolute air pressure of the measurement (hPa),sample flow rate (lpm),inlet stack bypass flow (lpm),air temperature of the measurement (°C),ambient temperature measured by the external sensor (°C),aerosol sample conditioner tube jacket temperature (°C),OPC LED temperature (°C),internal box temperature (°C),relative humidity of the measurement (%),span deviation,mass concentration of particles derived from Lorenz-Mie calculation of OPC scattering (μg/m³),mass concentration of particles derived from Lorenz-Mie calculation of OPC scattering (μg/m³),mass concentration of particles derived from Lorenz-Mie calculation of OPC scattering (μg/m³)
DateTimeUTC,F1_M11,P_M11,Q1_M11,Q2_M11,T1_M11,T2_M11,T3_M11,T4_M11,T5_M11,U1_M11,ZSPAN_M11,X0_M11,X2_M11,X1_M11
2023-08-05 11:00:00,SystemResetWarning,0833.9,5.01,000.00,029.5,028.0,000.0,038.1,031.1,25.9,0000.0,0007.31,0004.40,0004.04
2023-08-05 11:01:00,SystemResetWarning,0833.8,5.00,000.00,029.5,028.1,000.0,038.1,031.1,25.9,0000.0,0007.40,0004.43,0004.03
2023-08-05 11:02:00,SystemResetWarning,0833.8,4.99,000.00,029.5,028.1,000.0,038.2,031.1,25.8,0000.0,0007.50,0004.45,0004.04
2023-08-05 11:03:00,SystemResetWarning,0833.8,4.98,000.00,029.5,028.2,000.0,038.2,031.1,25.9,0000.0,0007.80,0004.47,0004.04
2023-08-05 11:04:00,SystemResetWarning,0833.8,5.00,000.00,029.6,028.2,000.0,038.2,031.2,25.8,0000.0,0007.82,0004.51,0004.04
2023-08-05 11:05:00,SystemResetWarning,0833.9,5.01,000.00,029.6,028.2,000.0,038.2,031.2,25.8,0000.0,0007.92,0004.53,0004.04
2023-08-05 11:06:00,SystemResetWarning,0833.9,5.00,000.00,029.6,028.3,000.0,038.2,031.2,25.8,0000.0,0008.02,0004.54,0004.03
2023-08-05 11:07:00,SystemResetWarning,0833.9,5.01,000.00,029.6,028.3,000.0,038.2,031.2,25.8,0000.0,0007.99,0004.53,0004.03
2023-08-05 11:08:00,SystemResetWarning,0834.0,5.00,000.00,029.6,028.3,000.0,038.2,031.2,25.8,0000.0,0007.95,0004.51,0004.02
2023-08-05 11:09:00,SystemResetWarning,0833.9,5.00,000.00,029.6,028.3,000.0,038.2,031.2,25.7,0000.0,0008.20,0004.55,0004.03
2023-08-05 11:10:00,SystemResetWarning,0834.0,4.99,000.00,029.7,028.3,000.0,038.3,031.3,25.7,0000.0,0008.32,0004.58,0004.02
2023-08-05 11:11:00,SystemResetWarning,0834.0,5.00,000.00,029.7,028.3,000.0,038.3,031.3,25.6,0000.0,0008.24,0004.57,0004.03
2023-08-05 11:12:00,SystemResetWarning,0834.0,5.00,000.00,029.7,028.4,000.0,038.3,031.3,25.6,0000.0,0008.24,0004.58,0004.03
2023-08-05 11:13:00,SystemResetWarning,0834.0,5.01,000.00,029.7,028.4,000.0,038.3,031.3,25.5,0000.0,0008.38,0004.60,0004.03
2023-08-05 11:14:00,SystemResetWarning,0834.1,5.01,000.00,029.7,028.4,000.0,038.3,031.3,25.5,0000.0,0008.43,0004.62,0004.03
2023-08-05 11:15:00,SystemResetWarning,0834.1,5.00,000.00,029.7,028.4,000.0,038.3,031.3,25.5,0000.0,0008.33,0004.59,0004.04
2023-08-05 11:16:00,SystemResetWarning,0834.1,5.00,000.00,029.7,028.4,000.0,038.3,031.3,25.6,0000.0,0008.48,0004.57,0004.04
2023-08-05 11:17:00,SystemResetWarning,0834.1,5.00,000.00,029.8,028.4,000.0,038.4,031.3,25.7,0000.0,0008.56,0004.60,0004.05
2023-08-05 11:18:00,SystemResetWarning,0834.1,5.00,000.00,029.8,028.4,000.0,038.4,031.4,25.7,0000.0,0008.74,0004.60,0004.05
2023-08-05 11:19:00,SystemResetWarning,0834.2,4.99,000.00,029.8,028.5,000.0,038.4,031.3,25.6,0000.0,0009.15,0004.62,0004.06
2023-08-05 11:20:00,SystemResetWarning,0834.1,5.00,000.00,029.8,028.5,000.0,038.4,031.3,25.5,0000.0,0009.10,0004.61,0004.06
2023-08-05 11:21:00,SystemResetWarning,0834.2,5.00,000.00,029.8,028.5,000.0,038.4,031.4,25.4,0000.0,0008.97,0004.59,0004.05
2023-08-05 11:22:00,SystemResetWarning,0834.2,5.00,000.00,029.8,028.5,000.0,038.4,031.4,25.4,0000.0,0008.99,0004.57,0004.04
2023-08-05 11:23:00,SystemResetWarning,0834.2,5.00,000.00,029.8,028.5,000.0,038.4,031.4,25.4,0000.0,0009.06,0004.56,0004.04
2023-08-05 11:24:00,SystemResetWarning,0834.2,5.00,000.00,029.8,028.5,000.0,038.4,031.4,25.3,0000.0,0008.84,0004.52,0004.04
2023-08-05 11:25:00,SystemResetWarning,0834.2,5.00,000.00,029.9,028.5,000.0,038.5,031.4,25.3,0000.0,0008.47,0004.50,0004.04
2023-08-05 11:26:00,SystemResetWarning,0834.2,5.00,000.00,029.9,028.5,000.0,038.5,031.4,25.3,0000.0,0008.49,0004.49,0004.03
2023-08-05 11:27:00,SystemResetWarning,0834.2,5.00,000.00,029.9,028.5,000.0,038.5,031.5,25.3,0000.0,0008.29,0004.49,0004.03
2023-08-05 11:28:00,SystemResetWarning,0834.2,5.00,000.00,029.9,028.5,000.0,038.5,031.5,25.2,0000.0,0008.49,0004.47,0004.02
2023-08-05 11:29:00,SystemResetWarning,0834.2,5.00,000.00,029.9,028.6,000.0,038.5,031.5,25.1,0000.0,0008.87,0004.46,0004.01
2023-08-05 11:30:00,SystemResetWarning,0834.2,5.00,000.00,029.9,028.6,000.0,038.5,031.5,25.1,0000.0,0008.43,0004.46,0004.01
2023-08-05 11:31:00,SystemResetWarning,0834.2,5.00,000.00,029.9,028.6,000.0,038.5,031.5,25.0,0000.0,0008.33,0004.45,0004.01
2023-08-05 11:32:00,SystemResetWarning,0834.2,5.00,000.00,029.9,028.4,000.0,038.5,031.5,25.0,0000.0,0008.31,0004.45,0004.01
2023-08-05 11:33:00,SystemResetWarning,0834.2,4.98,000.00,029.9,026.5,000.0,038.4,031.2,25.0,0000.0,0008.31,0004.46,0004.02
2023-08-05 11:34:00,SystemResetWarning,0834.2,5.01,000.00,029.8,025.2,000.0,038.3,031.0,25.1,0000.0,0008.16,0004.45,0004.01
2023-08-05 11:35:00,SystemResetWarning,0834.2,5.01,000.00,029.7,025.2,000.0,038.2,030.7,25.3,0000.0,0008.16,0004.45,0004.01
2023-08-05 11:36:00,SystemResetWarning,0834.2,4.99,000.00,029.6,025.5,000.0,038.2,030.7,25.5,0000.0,0008.12,0004.43,0003.99
2023-08-05 11:37:00,SystemResetWarning,0834.2,5.00,000.00,029.5,025.9,000.0,038.3,030.8,25.6,0000.0,0008.16,0004.45,0003.99
2023-08-05 11:38:00,SystemResetWarning,0834.2,5.01,000.00,029.5,026.3,000.0,038.3,030.8,25.6,0000.0,0008.16,0004.45,0004.00
2023-08-05 11:39:00,SystemResetWarning,0834.3,5.00,000.00,029.5,026.7,000.0,038.2,030.9,25.6,0000.0,0007.87,0004.45,0004.01
2023-08-05 11:40:00,SystemResetWarning,0834.6,4.98,000.00,029.5,027.0,000.0,038.2,030.9,25.8,0000.0,0007.11,0004.46,0004.02
2023-08-05 11:41:00,SystemResetWarning,0834.4,5.01,000.00,029.5,027.3,000.0,038.2,031.0,26.5,0000.0,0007.06,0004.45,0004.01
2023-08-05 11:42:00,SystemResetWarning,0834.5,5.01,000.00,029.5,027.5,000.0,038.2,031.0,26.5,0000.0,0006.97,0004.45,0004.01
2023-08-05 11:43:00,SystemResetWarning,0834.4,5.00,000.00,029.5,027.7,000.0,038.2,031.0,26.2,0000.0,0007.01,0004.43,0004.01
2023-08-05 11:44:00,SystemResetWarning,0834.2,5.01,000.00,029.5,027.8,000.0,038.2,031.1,26.0,0000.0,0007.04,0004.42,0004.01
2023-08-05 11:45:00,SystemResetWarning,0834.4,5.00,000.00,029.5,027.9,000.0,038.2,031.1,25.9,0000.0,0007.07,0004.42,0004.02
2023-08-05 11:46:00,SystemResetWarning,0834.3,5.00,000.00,029.5,028.0,000.0,038.2,031.1,26.0,0000.0,0007.21,0004.43,0004.03
2023-08-05 11:47:00,SystemResetWarning,0834.3,4.98,000.00,029.5,028.1,000.0,038.2,031.1,25.9,0000.0,0007.64,0004.42,0004.03
2023-08-05 11:48:00,SystemResetWarning,0834.4,5.00,000.00,029.6,028.2,000.0,038.2,031.2,25.8,0000.0,0007.55,0004.39,0004.02
2023-08-05 11:49:00,SystemResetWarning,0834.4,5.01,000.00,029.6,028.3,000.0,038.2,031.2,25.7,0000.0,0007.67,0004.41,0004.03
2023-08-05 11:50:00,SystemResetWarning,0834.4,5.01,000.00,029.6,028.3,000.0,038.2,031.2,25.8,0000.0,0007.74,0004.41,0004.03
2023-08-05 11:51:00,SystemResetWarning,0834.4,5.01,000.00,029.6,028.4,000.0,038.2,031.3,25.8,0000.0,0008.26,0004.42,0004.02
2023-08-05 11:52:00,SystemResetWarning,0834.4,5.00,000.00,029.7,028.4,000.0,038.3,031.3,25.7,0000.0,0008.26,0004.41,0004.03
2023-08-05 11:53:00,SystemResetWarning,0834.5,5.00,000.00,029.7,028.5,000.0,038.3,031.3,25.8,0000.0,0008.33,0004.42,0004.04
2023-08-05 11:54:00,SystemResetWarning,0834.5,5.00,000.00,029.7,028.5,000.0,038.3,031.3,25.8,0000.0,0008.27,0004.42,0004.04
2023-08-05 11:55:00,SystemResetWarning,0834.6,5.00,000.00,029.7,028.5,000.0,038.3,031.3,25.8,0000.0,0008.24,0004.42,0004.04
2023-08-05 11:56:00,SystemResetWarning,0835.0,5.00,000.00,029.7,028.6,000.0,038.3,031.4,25.8,0000.0,0008.37,0004.43,0004.04
2023-08-05 11:57:00,SystemResetWarning,0835.1,5.00,000.00,029.8,028.6,000.0,038.3,031.4,25.8,0000.0,0008.41,0004.44,0004.04
2023-08-05 11:58:00,SystemResetWarning,0835.1,5.00,000.00,029.8,028.6,000.0,038.4,031.4,25.8,0000.0,0008.08,0004.46,0004.04
2023-08-05 11:59:00,SystemResetWarning,0835.0,5.00,000.00,029.8,028.6,000.0,038.4,031.4,25.8,0000.0,0008.01,0004.46,0004.04
